[[{"header":{"parameterUnit":"m.s-1","parameterCategory":1,"la1":30.2991,"la2":30.254,"lo1":-89.0895,"lo2":-89.0444,"dy":0.0017,"dx":0.0017,"nx":28,"ny":28,"refTime":"2023-07-23T03:00:00:Z","depth":0,"parameterNumber":2,"parameterNumberName":"U-component_of_WINDS"},"data":[0,0,0,0,0,0,0,0,0,0,0,0,0,0,0,0,0,0,0,0,0,0,0,0,0,0,0,0,0,0,0,0,0,0,0,0,0,0,0,0,0,0,0,0,0,0,0,0,0,0,0,0,0,0,0,0,0,0,1.3494,1.3494,0,1.3494,1.3494,1.3494,1.3484,1.3484,1.3484,1.3483,1.3483,1.3483,1.3483,0,0,0,0,0,0,0,0,0,0,0,0,0,1.3484,1.3484,1.3494,1.3494,1.3494,1.3494,1.3494,1.3494,1.3484,1.3484,1.3484,1.3483,1.3483,1.3483,1.3483,0,0,0,0,0,0,0,0,0,0,0,0,0,1.3487,1.3484,1.3494,1.3489,1.3489,1.3494,1.3494,1.3494,1.3484,1.3484,1.3484,1.3483,1.3483,1.3483,1.3483,1.3494,0,0,1.3485,1.3485,0,0,0,0,0,0,0,0,1.3487,1.3487,1.349,1.3489,1.3489,1.3489,1.3491,1.3494,1.3484,1.3486,1.3483,1.3483,1.3485,1.3485,1.3486,1.3494,1.3494,1.3485,1.3485,1.3485,1.3485,0,0,0,0,0,0,0,1.3487,1.3487,1.3494,1.349,1.3489,1.3487,1.3487,1.3491,1.3488,1.3486,1.3485,1.3485,1.3485,1.3486,1.3486,1.3494,1.3485,1.3485,1.3485,1.3485,1.351,1.3511,0,0,0,0,0,0,1.3487,1.3487,1.3494,1.3494,1.3487,1.3487,1.3487,1.3489,1.3488,1.3487,1.3486,1.3485,1.3485,1.3486,1.3486,1.3499,1.3485,1.3485,1.3485,1.351,1.3511,1.3511,0,0,0,0,0,0,1.3487,1.3488,1.3494,1.349,1.3491,1.3488,1.349,1.3489,1.349,1.3488,1.3487,1.3487,1.3485,1.3486,1.3492,1.3498,1.3485,1.3486,1.3509,1.351,1.3511,1.3523,0,0,0,0,0,0,1.3487,1.3488,1.3492,1.3491,1.3491,1.35,1.3491,1.349,1.3491,1.349,1.3489,1.3488,1.3485,1.3492,1.3493,1.3499,1.3486,1.3509,1.351,1.3511,1.3522,1.3524,1.3526,0,0,0,0,0,1.3486,1.3495,1.3492,1.3493,1.3496,1.3501,1.3501,1.3497,1.3492,1.3496,1.3494,1.3488,1.3498,1.3492,1.3493,1.35,1.3508,1.351,1.3511,1.3522,1.3524,1.3526,0,0,0,0,0,0,1.3496,1.3494,1.3491,1.35,1.35,1.3499,1.3504,1.3499,1.3501,1.35,1.3495,1.3495,1.3502,1.3502,1.3496,1.351,1.3502,1.3503,1.351,1.3513,1.3514,1.3515,1.3486,0,0,0,0,0,1.3499,1.3503,1.3502,1.3509,1.351,1.3507,1.3508,1.3505,1.3506,1.3506,1.3505,1.3505,1.3508,1.351,1.3513,1.3522,1.3522,1.3527,1.3529,1.3531,1.3532,1.3538,1.354,1.3514,1.3514,1.3514,0,0,1.3506,1.3505,1.3508,1.3511,1.3511,1.3516,1.3507,1.3512,1.3515,1.3507,1.3513,1.3512,1.3512,1.3521,1.3524,1.352,1.3539,1.3532,1.3533,1.3534,1.3539,1.3541,1.3544,1.3515,1.3515,1.3515,0,0,1.352,1.352,1.3526,1.3527,1.3528,1.3526,1.3528,1.3527,1.3526,1.3533,1.3527,1.3531,1.3536,1.3537,1.3538,1.3553,1.3548,1.3554,1.3564,1.357,1.3572,1.3573,1.358,1.3582,1.3555,1.3555,1.3555,0,1.3527,1.3534,1.353,1.3536,1.3537,1.3531,1.3538,1.3539,1.354,1.3541,1.3537,1.3544,1.3544,1.3552,1.3556,1.3557,1.3559,1.3554,1.3572,1.3574,1.3575,1.3581,1.3583,1.3556,1.3556,1.3556,1.3556,0,1.3544,1.3549,1.3554,1.3556,1.3559,1.3565,1.3562,1.3565,1.3562,1.356,1.3568,1.3567,1.357,1.3572,1.3568,1.358,1.3578,1.3573,1.3565,1.3578,1.3584,1.3586,1.3557,1.3557,1.3557,1.3556,0,0,1.3564,1.3565,1.3567,1.3568,1.3569,1.3572,1.3579,1.3582,1.3585,1.3586,1.3591,1.3596,1.3592,1.3593,1.359,1.3595,1.3608,1.3589,1.3589,1.3593,1.3622,1.3626,1.3629,1.3605,1.3606,1.3606,1.3622,0,1.3578,1.3589,1.3586,1.3597,1.3601,1.3596,1.3601,1.3602,1.3601,1.3605,1.3604,1.3608,1.3601,1.3602,1.3607,1.3606,1.3614,1.3604,1.361,1.3611,1.3611,1.3632,1.3636,1.3652,1.3624,1.3625,1.3625,0,1.3596,1.3599,1.361,1.3611,1.3613,1.3618,1.3622,1.3625,1.3627,1.3626,1.3628,1.3624,1.363,1.3622,1.3631,1.3624,1.3627,1.3627,1.3627,1.3628,1.3619,1.3633,1.3656,1.3659,1.3628,1.3628,1.3628,0,1.361,1.3617,1.3625,1.3626,1.3627,1.3631,1.3632,1.3633,1.3635,1.3638,1.364,1.3643,1.3645,1.3648,1.3645,1.3639,1.3654,1.3646,1.3654,1.3654,1.3657,1.3657,1.3682,1.3658,1.3658,1.3658,1.3658,0,1.3626,1.3634,1.3631,1.3636,1.3645,1.3641,1.365,1.365,1.3651,1.3656,1.3651,1.3655,1.3651,1.3656,1.3654,1.3662,1.3662,1.3662,1.3661,1.3663,1.3663,1.3664,1.3663,1.3659,1.3659,1.3659,1.3658,0,1.3643,1.3642,1.3651,1.3651,1.3652,1.3658,1.3659,1.3663,1.3662,1.3669,1.367,1.3669,1.3674,1.3671,1.3676,1.3675,1.3685,1.3683,1.3685,1.3685,1.3693,1.3692,1.3719,1.3723,1.3697,1.3697,1.3697,0,1.3654,1.366,1.3662,1.3665,1.3666,1.3671,1.3674,1.3671,1.3674,1.3677,1.3682,1.3686,1.369,1.3698,1.3698,1.3702,1.37,1.3709,1.37,1.3702,1.37,1.37,1.3701,1.3711,1.3711,1.3711,1.3711,0,1.3674,1.3673,1.3678,1.3682,1.3686,1.3689,1.3692,1.3695,1.3692,1.3696,1.3701,1.3704,1.371,1.3715,1.3719,1.3719,1.3715,1.3714,1.3716,1.3718,1.3719,1.3719,1.369,1.3714,1.3713,1.3713,1.3713,1.3713,1.3689,1.3694,1.3696,1.3702,1.3704,1.3707,1.3711,1.3711,1.3716,1.3721,1.3719,1.3725,1.3727,1.3732,1.3733,1.3738,1.3734,1.3737,1.3738,1.3739,1.3741,1.3718,1.3739,1.3739,1.3738,1.3738,1.3738,0,1.3708,1.371,1.3715,1.3719,1.3724,1.372,1.3723,1.3727,1.3733,1.3735,1.3739,1.3746,1.3751,1.3751,1.3756,1.376,1.3758,1.3761,1.3761,1.3761,1.3743,1.3741,1.3762,1.3762,1.3762,1.3762,1.3762,1.3762,1.3719,1.3728,1.3728,1.3738,1.3739,1.3746,1.3748,1.3751,1.3753,1.3761,1.3765,1.3765,1.3767,1.3772,1.3776,1.3776,1.3778,1.3782,1.3782,1.3765,1.3762,1.376,1.3758,1.3783,1.3783,1.3799,1.3799,1.3799]},{"header":{"parameterUnit":"m.s-1","parameterCategory":1,"la1":30.2991,"la2":30.254,"lo1":-89.0895,"lo2":-89.0444,"dy":0.0017,"dx":0.0017,"nx":28,"ny":28,"refTime":"2023-07-23T03:00:00:Z","depth":0,"parameterNumber":3,"parameterNumberName":"V-component_of_WINDS"},"data":[0,0,0,0,0,0,0,0,0,0,0,0,0,0,0,0,0,0,0,0,0,0,0,0,0,0,0,0,0,0,0,0,0,0,0,0,0,0,0,0,0,0,0,0,0,0,0,0,0,0,0,0,0,0,0,0,0,0,-0.1085,-0.1084,0,-0.1017,-0.1016,-0.1016,-0.0983,-0.0983,-0.0983,-0.0983,-0.0912,-0.091,-0.0908,0,0,0,0,0,0,0,0,0,0,0,0,0,-0.1184,-0.1182,-0.1085,-0.1084,-0.1083,-0.1017,-0.1016,-0.1015,-0.0983,-0.0983,-0.0983,-0.0983,-0.0912,-0.091,-0.0908,0,0,0,0,0,0,0,0,0,0,0,0,0,-0.1131,-0.1182,-0.1085,-0.1059,-0.1056,-0.1017,-0.1016,-0.1015,-0.0983,-0.0983,-0.0983,-0.0983,-0.0913,-0.091,-0.0908,-0.0889,0,0,-0.0899,-0.0897,0,0,0,0,0,0,0,0,-0.1134,-0.1127,-0.1064,-0.1061,-0.1057,-0.1009,-0.1025,-0.0973,-0.0983,-0.1011,-0.0983,-0.0984,-0.0944,-0.0938,-0.0926,-0.0885,-0.0882,-0.0898,-0.0897,-0.0895,-0.0895,0,0,0,0,0,0,0,-0.1138,-0.113,-0.1058,-0.1063,-0.1059,-0.105,-0.1043,-0.1015,-0.0978,-0.1008,-0.1006,-0.0999,-0.0942,-0.0929,-0.0924,-0.0881,-0.0898,-0.0896,-0.0894,-0.0893,-0.0822,-0.0822,0,0,0,0,0,0,-0.1146,-0.1133,-0.106,-0.1056,-0.1097,-0.1049,-0.104,-0.1024,-0.0978,-0.0971,-0.0999,-0.0997,-0.0933,-0.0927,-0.0921,-0.0896,-0.0895,-0.0893,-0.0891,-0.0823,-0.0822,-0.0822,0,0,0,0,0,0,-0.1148,-0.114,-0.1063,-0.1094,-0.1084,-0.1047,-0.1029,-0.1023,-0.1009,-0.0971,-0.0964,-0.0992,-0.0933,-0.0925,-0.0897,-0.0893,-0.0891,-0.0889,-0.0823,-0.0822,-0.0822,-0.0846,0,0,0,0,0,0,-0.1151,-0.1141,-0.1133,-0.1094,-0.1082,-0.1041,-0.1029,-0.1022,-0.1005,-0.1002,-0.0962,-0.0956,-0.0933,-0.0902,-0.0894,-0.0889,-0.0886,-0.0823,-0.0823,-0.0822,-0.0846,-0.0847,-0.0848,0,0,0,0,0,-0.1155,-0.1142,-0.1133,-0.1125,-0.1072,-0.104,-0.1033,-0.1008,-0.1004,-0.0997,-0.0972,-0.0957,-0.0895,-0.0899,-0.0891,-0.0884,-0.0823,-0.0823,-0.0822,-0.0845,-0.0847,-0.0848,0,0,0,0,0,0,-0.1181,-0.1136,-0.1126,-0.11,-0.1075,-0.1035,-0.1024,-0.101,-0.0984,-0.0983,-0.0952,-0.0943,-0.0918,-0.0898,-0.0904,-0.0864,-0.0858,-0.0856,-0.0878,-0.0879,-0.088,-0.0885,-0.0884,0,0,0,0,0,-0.1184,-0.1162,-0.1124,-0.1105,-0.1093,-0.1061,-0.1046,-0.1029,-0.1001,-0.0989,-0.0963,-0.0935,-0.0909,-0.0893,-0.0867,-0.0843,-0.0834,-0.0834,-0.0836,-0.0837,-0.0835,-0.0821,-0.0821,-0.0821,-0.0821,-0.0821,0,0,-0.1189,-0.1162,-0.1151,-0.111,-0.1088,-0.1066,-0.1052,-0.1029,-0.1012,-0.0986,-0.0958,-0.0938,-0.0905,-0.0879,-0.0866,-0.0861,-0.0833,-0.0836,-0.0838,-0.0835,-0.0821,-0.0821,-0.0821,-0.0821,-0.0821,-0.0821,0,0,-0.1188,-0.1166,-0.1148,-0.1126,-0.1094,-0.1073,-0.1068,-0.1031,-0.1017,-0.0989,-0.0969,-0.0948,-0.0904,-0.0882,-0.0865,-0.0857,-0.0842,-0.0849,-0.0855,-0.0842,-0.0842,-0.0842,-0.0839,-0.0839,-0.0848,-0.0848,-0.0848,0,-0.1199,-0.1166,-0.114,-0.1119,-0.1102,-0.1077,-0.1059,-0.1039,-0.0999,-0.0988,-0.0984,-0.0929,-0.0905,-0.0874,-0.0872,-0.0859,-0.0853,-0.0853,-0.0844,-0.0844,-0.0843,-0.084,-0.0839,-0.0849,-0.0849,-0.0849,-0.0849,0,-0.1181,-0.1158,-0.1147,-0.1111,-0.1092,-0.1072,-0.1044,-0.1028,-0.1013,-0.0992,-0.0964,-0.0935,-0.0903,-0.0894,-0.0879,-0.0861,-0.086,-0.085,-0.0843,-0.0845,-0.0842,-0.084,-0.0851,-0.085,-0.085,-0.085,0,0,-0.1193,-0.1144,-0.114,-0.1124,-0.1086,-0.1068,-0.1047,-0.1017,-0.1004,-0.0978,-0.096,-0.0924,-0.0916,-0.0896,-0.0878,-0.0867,-0.0863,-0.0859,-0.0857,-0.0861,-0.0842,-0.0849,-0.0848,-0.0853,-0.0852,-0.0852,-0.0845,0,-0.1187,-0.1149,-0.1126,-0.1097,-0.1076,-0.1054,-0.1035,-0.101,-0.0991,-0.097,-0.0948,-0.0923,-0.0914,-0.0902,-0.089,-0.0866,-0.0858,-0.0866,-0.0835,-0.0834,-0.0844,-0.0846,-0.0853,-0.0848,-0.0843,-0.0843,-0.0843,0,-0.1174,-0.115,-0.1119,-0.1085,-0.1075,-0.106,-0.1031,-0.1011,-0.0982,-0.0969,-0.0948,-0.093,-0.0907,-0.0902,-0.087,-0.0876,-0.0862,-0.0848,-0.0847,-0.0843,-0.0838,-0.0842,-0.0845,-0.0844,-0.084,-0.084,-0.0841,0,-0.1187,-0.1146,-0.1123,-0.1109,-0.1069,-0.1058,-0.1041,-0.1012,-0.0996,-0.0971,-0.096,-0.0932,-0.0916,-0.0895,-0.0869,-0.0868,-0.084,-0.0833,-0.0828,-0.0829,-0.0822,-0.0823,-0.0823,-0.0814,-0.0814,-0.0814,-0.0814,0,-0.1182,-0.1164,-0.1128,-0.1114,-0.1093,-0.1067,-0.1047,-0.1028,-0.1003,-0.0984,-0.0963,-0.0946,-0.0913,-0.0892,-0.0872,-0.0849,-0.0842,-0.083,-0.0825,-0.0832,-0.0834,-0.0822,-0.0822,-0.0813,-0.0814,-0.0814,-0.0814,0,-0.1192,-0.1167,-0.114,-0.1105,-0.1096,-0.1082,-0.1051,-0.1037,-0.1017,-0.0993,-0.0986,-0.0954,-0.0928,-0.0901,-0.0866,-0.0852,-0.083,-0.0822,-0.084,-0.0837,-0.0833,-0.0834,-0.0826,-0.0824,-0.0816,-0.0816,-0.0816,0,-0.1191,-0.1177,-0.114,-0.1127,-0.111,-0.1088,-0.1072,-0.1046,-0.103,-0.0997,-0.0986,-0.0959,-0.0935,-0.0895,-0.0868,-0.0841,-0.0833,-0.0832,-0.0829,-0.0837,-0.0833,-0.0834,-0.0833,-0.0833,-0.0833,-0.0834,-0.0834,0,-0.1191,-0.118,-0.1157,-0.1131,-0.1113,-0.109,-0.1067,-0.1057,-0.1026,-0.1009,-0.0983,-0.0965,-0.093,-0.0903,-0.0873,-0.0854,-0.0839,-0.0835,-0.0833,-0.0839,-0.085,-0.0845,-0.0843,-0.0835,-0.0835,-0.0835,-0.0835,-0.0835,-0.1195,-0.1182,-0.1155,-0.1131,-0.1111,-0.109,-0.1075,-0.1054,-0.1032,-0.1001,-0.0987,-0.0961,-0.0933,-0.0891,-0.0873,-0.0852,-0.0848,-0.0844,-0.0843,-0.0842,-0.0844,-0.0854,-0.0847,-0.0846,-0.0846,-0.0846,-0.0846,0,-0.1194,-0.1176,-0.1154,-0.1124,-0.1105,-0.1093,-0.1067,-0.1052,-0.103,-0.1006,-0.0984,-0.0954,-0.0928,-0.09,-0.0873,-0.0861,-0.0854,-0.0855,-0.0855,-0.0851,-0.085,-0.0855,-0.0862,-0.0862,-0.0862,-0.0862,-0.0862,-0.0862,-0.1192,-0.1169,-0.1155,-0.1123,-0.1104,-0.1079,-0.1065,-0.1046,-0.1027,-0.0995,-0.0974,-0.0956,-0.093,-0.0901,-0.0877,-0.0869,-0.086,-0.0864,-0.0854,-0.0853,-0.0851,-0.085,-0.0855,-0.0862,-0.0862,-0.0857,-0.0857,-0.0857]}]]